Weather in Ashty

Russia / Republic of Dagestan     41°57′40″N   47°30′10″E
temp.,
°C
wind,
m/s
gust,
m/s
humid.,
%
clouds,
%
prec.,
mm/h
press.,
hPa
HPBL,
m
12 april, mon
mon1200:00+8ssw117068 0.1 101423
03:00+6ssw2274100 0.1 101526
06:00+6ssw2273100 0.0 101526
09:00+10ene3354100 0.0 10151014
12:00+11ene556016 0.4 10141102
15:00+10ene556715 2.5 1015645
18:00+6ene338542 1.1 1018264
21:00+4ese239451 1.1 1020162
13 april, tue
tue1300:00+4se238719 0.0 1021234
03:00+3sse228624 0.0 102124
06:00+3se2285100 0.0 102196
09:00+8e456633 0.0 1019906
12:00+10ene565414 0.1 10171125
15:00+10ene665818 0.3 1016999
18:00+5ene44753 0.1 1018403
21:00+4se23792 0.1 101881
14 april, wed
wed1400:00+3sse227972 0.0 101724
03:00+3sse227790 0.0 101521
06:00+4se226974 0.0 101467
09:00+6ese246984 0.8 1013789
12:00+8ene465553 1.6 10111279
15:00+6ne4264100 5.3 1012412
18:00+4ne2285100 2.8 1014167
21:00+3ne1182100 3.6 101548
15 april, thu
thu1500:00+2wnw118725 0.7 101684
03:00+1sw22683 0.7 101623
06:00+1sw32550 0.0 101743
09:00+7nne22360 0.0 10141115
12:00+10ne553729 0.0 10121924
15:00+8ne426863 0.7 1014839
18:00+6ene2282100 0.8 1015359
21:00+4se1189100 0.8 101610
16 april, fri
fri1600:00+4s117859 0.0 101610
03:00+3ssw1163100 0.0 101610
06:00+4sse1160100 0.0 101610
09:00+7ene3361100 0.0 1016938
12:00+8ne4369100 0.5 1015869
15:00+5ene3288100 2.4 1016552
18:00+5ne218673 0.8 1017318
21:00+5nne1083100 0.9 1018148